カタログに戻る

STARLINK-37242

運用中通信SSO
NORAD 68728·PAYLOAD·🇺🇸 United States

打ち上げ Apr 15, 2026 から Vandenberg Space Force Base

Loading…

次のパス (今後24時間)

TLE

最新Source: CelesTrak SupGP

元期: Sep 14, 2026, 21:09 UTC

1 68728C 26082A   26257.88173611  .00016581  00000+0  51499-3 0  2574
2 68728  97.2846 120.1029 0002149  91.4963 279.2112 15.33412723    18

AllMySatでSTARLINK-37242をリアルタイム追跡

Download on the App Store